Theta_e
335 337 338 340 340 340 342 343 346 345 347 349 351 350 351 352 354 354 353 353 354 356 357 359 358 358 357 355 356 357 356 355 355 352 351 350 348 349 350 349 350 352 348 349 351 350 355 358 357 356 358 359 360 361 363 365 364 361 364 367 365 366 367
334 335 336 338 340 342 343 345 347 346 347 349 350 352 352 351 353 353 354 355 354 356 356 357 359 358 358 358 357 358 357 356 356 355 351 352 353 352 350 351 350 351 355 352 351 355 357 357 358 358 357 359 358 361 361 363 364 365 365 366 363 367 367
331 337 338 338 337 340 344 344 345 347 348 348 349 350 351 353 354 355 355 354 354 355 355 355 358 357 358 359 357 358 358 356 356 355 353 351 353 351 352 354 353 351 351 353 355 353 356 356 358 359 358 357 355 359 361 362 364 362 364 367 365 363 366
331 332 337 343 344 342 341 343 345 346 347 348 348 349 350 353 355 356 355 355 354 354 354 353 355 354 355 357 356 358 357 357 356 353 352 351 350 350 351 352 355 353 351 352 352 353 350 354 356 358 360 358 358 358 360 359 359 360 362 366 363 364 365
332 332 333 335 337 340 342 342 342 345 347 347 349 351 351 353 354 355 355 354 353 352 353 352 352 353 354 355 354 355 356 355 355 355 354 354 356 355 352 351 352 353 352 352 354 355 356 357 354 356 357 360 358 358 360 362 360 363 365 367 364 363 362
335 334 334 336 337 336 338 339 342 344 346 346 348 349 350 351 352 352 353 353 353 353 353 353 352 353 354 354 353 352 355 356 357 357 355 357 357 354 354 355 352 352 352 353 353 354 355 356 355 355 355 355 355 352 355 357 357 360 363 366 364 362 359
339 339 339 339 337 336 337 338 340 342 347 347 349 350 350 350 351 351 352 352 352 352 352 352 351 352 354 354 354 354 354 354 356 355 355 354 356 355 355 355 356 354 354 355 354 354 353 355 357 357 354 353 354 351 355 358 359 360 364 367 365 363 363
340 340 340 340 341 341 338 340 341 343 345 349 348 349 349 350 350 352 351 352 352 353 353 353 351 353 355 355 354 352 353 353 354 356 355 353 354 354 354 354 354 356 356 354 356 357 356 359 358 358 356 354 354 355 353 359 362 359 360 362 362 362 359
342 342 342 341 342 341 341 342 342 341 344 348 349 349 350 351 349 349 351 352 353 353 353 352 352 353 356 355 353 353 352 352 353 353 353 352 352 352 352 353 354 356 355 354 356 359 359 359 359 360 360 357 357 357 357 359 359 359 359 361 362 363 360
340 341 343 344 345 344 346 344 345 344 346 348 350 351 351 352 351 350 350 351 352 352 353 353 354 353 356 356 354 353 351 351 351 350 351 350 351 351 352 352 353 355 354 355 356 357 362 362 361 362 364 358 358 358 360 359 358 359 360 359 362 363 362
340 341 342 343 344 346 345 346 344 343 345 349 352 352 353 352 352 351 352 353 353 354 355 355 357 354 356 357 354 352 350 349 349 349 350 350 350 349 351 352 352 355 356 356 355 357 361 363 363 363 364 358 358 359 360 359 359 361 360 361 362 362 361
338 338 339 340 343 344 345 344 346 346 347 350 351 354 354 355 353 351 353 354 355 355 355 356 356 356 356 357 354 353 349 348 348 348 349 349 349 349 349 350 352 354 357 357 355 358 359 362 361 360 362 361 359 360 361 361 361 362 362 361 361 360 361
337 337 338 339 341 343 345 345 345 345 346 348 350 352 353 354 354 354 355 356 357 358 357 358 359 359 358 359 356 356 352 347 348 347 347 348 349 349 351 350 351 353 355 357 355 356 357 358 362 362 360 361 360 358 360 362 361 363 363 362 361 361 362
336 338 338 339 339 339 340 342 344 345 345 345 348 352 353 353 354 355 355 356 357 359 359 358 361 360 361 360 358 358 356 352 349 348 350 349 352 351 350 351 351 352 353 356 356 354 355 355 357 359 360 360 360 360 362 362 363 363 363 364 362 361 361
334 335 336 337 337 339 340 340 341 343 344 346 346 347 351 352 354 355 356 357 359 358 359 360 360 361 361 362 360 359 361 359 356 354 352 354 353 351 350 350 352 351 354 355 355 353 353 354 355 356 358 359 359 360 359 359 361 362 362 361 363 363 360
333 334 335 336 338 339 340 341 342 342 344 346 346 347 348 350 352 353 354 354 357 358 359 360 360 361 361 360 362 362 363 364 362 359 358 356 356 357 355 352 351 350 352 352 353 355 355 354 353 354 354 356 359 359 357 358 358 363 366 368 362 362 358
334 335 336 337 339 340 341 341 342 344 344 345 346 348 349 350 351 353 353 353 354 356 359 361 360 358 360 359 362 364 365 365 365 364 363 362 361 361 360 356 352 352 353 353 353 355 357 355 352 352 352 353 355 356 355 355 356 366 347 349 356 359 359
334 334 335 337 339 339 340 341 342 342 343 345 347 348 349 350 351 351 352 353 353 355 358 360 357 357 357 358 361 363 365 364 365 365 365 364 364 364 364 360 357 355 355 353 354 357 356 357 356 355 353 353 352 353 354 355 362 343 344 346 346 356 359
335 335 335 337 338 339 339 340 342 343 344 346 347 348 350 351 350 349 351 353 354 357 356 358 360 357 357 358 359 362 363 366 365 365 365 364 365 365 365 364 359 357 356 356 356 356 357 358 357 356 355 354 355 354 354 354 352 338 341 342 341 344 358
335 336 337 338 338 339 339 340 341 343 345 346 347 348 350 351 351 351 352 353 354 354 355 356 356 357 357 358 359 361 363 364 365 364 365 365 366 366 364 363 362 360 357 359 360 358 357 358 357 357 358 356 357 357 358 357 359 339 339 339 338 340 349
336 336 337 338 339 340 340 340 341 342 343 346 348 349 349 349 351 351 352 352 352 353 353 355 356 356 355 357 360 361 362 363 363 363 365 365 365 365 365 364 364 363 361 360 360 360 359 359 358 358 359 359 357 355 355 354 339 336 337 335 334 336 349
336 337 337 338 338 339 340 340 341 342 343 346 347 348 349 349 350 350 350 352 351 352 353 353 354 354 356 356 354 355 361 363 362 362 362 362 363 363 363 363 364 363 363 361 360 361 361 361 360 359 359 361 360 358 354 361 330 334 334 332 333 337 353
337 339 339 339 339 339 341 342 343 344 344 346 347 347 347 348 349 350 351 351 351 351 353 354 353 353 354 356 355 359 362 359 360 360 360 361 360 361 361 363 363 363 363 362 361 359 359 360 360 361 360 362 362 361 360 362 335 327 328 330 330 342 357
338 339 337 337 338 340 342 344 345 346 345 345 345 347 348 349 348 349 350 349 349 350 350 353 354 355 355 358 357 359 358 356 359 359 359 360 360 360 360 362 364 365 364 362 361 360 359 361 360 361 361 361 362 357 359 354 340 325 325 326 327 348 357
336 336 337 338 338 338 340 343 344 345 346 346 344 345 347 348 347 346 347 346 346 349 350 351 353 352 354 354 352 355 356 358 360 360 359 359 360 360 360 361 363 365 365 364 364 362 363 362 362 363 364 364 364 361 360 359 338 321 323 324 326 343 361
335 335 337 338 340 341 342 344 343 343 343 343 344 346 347 346 344 344 344 345 344 344 347 350 351 354 350 352 359 362 361 361 360 359 359 359 360 360 361 363 364 364 364 363 362 361 362 363 362 362 361 363 364 360 360 359 354 335 319 322 325 329 357
337 337 337 337 338 341 341 342 341 342 343 344 345 346 346 345 343 342 344 342 343 343 345 348 354 351 346 348 351 354 357 359 359 359 359 360 360 360 361 361 361 363 362 360 360 360 360 359 359 358 357 358 358 357 356 355 352 335 317 317 319 324 336
337 338 339 340 340 340 339 340 342 343 344 345 345 346 347 345 342 341 343 342 339 340 343 345 348 350 350 348 345 347 351 354 357 359 357 357 358 358 357 358 359 359 359 359 359 358 357 357 354 353 352 354 353 353 351 346 347 345 322 316 315 319 325
335 336 336 337 338 339 338 339 340 340 341 342 344 345 346 345 343 342 342 340 340 342 343 344 345 346 347 347 344 343 343 345 349 352 355 356 355 356 354 355 354 354 355 355 355 355 353 354 351 350 348 346 345 347 346 345 341 337 337 318 314 314 320
337 336 336 337 338 338 338 338 339 340 341 341 343 345 345 344 342 341 340 341 343 344 344 343 343 344 344 345 344 344 343 345 346 348 349 351 353 353 354 354 353 354 353 353 352 350 350 349 348 348 343 340 339 340 341 341 339 332 332 327 314 312 314
335 335 336 336 337 339 338 336 337 338 339 340 341 343 344 344 342 340 338 340 343 343 341 341 341 339 337 337 336 336 337 339 343 345 344 344 346 348 349 350 351 349 351 350 349 349 347 344 342 342 340 340 337 338 338 338 337 336 332 328 322 315 313
335 336 337 338 338 338 337 337 337 339 339 338 339 338 339 340 341 337 336 339 341 342 341 340 337 335 333 332 332 332 333 333 335 337 339 342 346 348 350 347 349 349 348 347 346 346 345 338 338 337 334 333 331 329 330 332 332 332 334 334 333 326 318
334 335 335 336 336 337 336 336 335 336 336 335 337 338 339 341 341 340 341 340 340 340 340 339 337 335 334 332 330 330 331 330 328 326 326 328 332 335 339 343 346 345 343 343 342 340 336 332 331 328 327 326 327 327 327 328 330 330 331 332 334 335 334
333 334 336 337 337 337 337 335 334 334 334 334 335 336 337 339 340 340 340 340 340 340 339 337 336 334 333 332 331 329 328 327 326 323 319 317 317 318 323 331 334 333 334 337 340 338 334 334 333 331 329 328 328 327 327 326 325 323 323 324 329 334 335
334 335 336 335 335 335 333 335 334 334 334 333 335 336 338 339 340 340 339 339 340 339 337 335 335 334 333 332 331 329 328 326 324 323 320 316 313 310 308 309 320 329 326 323 321 333 339 337 334 335 335 334 332 330 328 327 325 318 305 312 303 320 337
333 333 335 334 334 334 333 333 333 332 332 332 334 334 335 337 339 339 339 338 338 337 335 335 334 334 333 332 331 331 329 328 327 326 325 322 319 316 312 307 299 306 321 320 312 306 305 314 333 336 337 332 322 321 332 330 321 301 297 296 297 298 299
331 332 332 334 333 332 331 332 333 333 332 333 334 334 333 333 335 337 338 339 339 338 336 335 334 333 332 331 330 329 329 329 328 328 328 328 327 324 320 317 311 297 298 304 304 301 298 298 300 303 311 326 321 311 303 303 298 295 295 296 296 297 297
333 332 332 332 332 331 330 330 331 331 331 333 334 334 333 333 334 335 335 337 338 339 338 336 334 333 332 331 330 330 331 330 330 329 329 329 329 329 328 324 319 313 300 297 300 298 295 295 294 295 297 299 309 319 314 301 296 294 295 296 297 296 296
Wind_Speed
11 10 11 11 11 13 14 11 12 11 11 12 11 13 13 12 12 11 11 13 14 14 14 13 13 11 12 11 10 9 9 8 8 8 8 8 7 8 8 8 8 6 7 7 7 7 6 6 5 6 5 6 6 6 5 4 4 4 4 3 3 2 1
5 7 9 10 10 9 9 11 11 10 11 11 11 13 12 14 13 12 12 13 14 14 15 14 13 12 12 11 10 11 10 10 9 8 8 8 7 7 8 8 7 7 6 6 6 6 6 7 6 6 6 6 7 5 6 6 5 5 4 4 4 3 3
7 6 5 9 12 9 7 7 10 10 11 11 12 12 13 13 14 14 13 13 14 14 14 14 14 13 12 11 11 11 11 11 10 10 10 9 10 10 8 7 7 7 8 7 5 6 7 7 7 6 6 6 7 7 6 5 5 6 5 4 4 5 4
9 8 6 6 7 8 9 6 7 9 11 12 12 13 14 14 14 13 14 14 15 14 15 14 14 14 12 12 12 11 12 12 11 11 11 10 10 9 9 8 7 7 7 8 7 7 6 7 8 7 7 6 6 5 6 5 6 6 6 5 5 4 4
10 8 8 6 8 7 6 6 8 11 12 12 12 12 13 14 13 13 14 14 15 16 16 15 13 13 12 13 11 10 12 13 12 11 10 9 9 9 9 10 9 9 7 7 7 7 6 6 7 7 8 7 7 6 6 6 6 5 5 5 5 5 5
8 9 7 5 6 6 6 8 9 10 9 12 12 12 12 13 13 14 14 14 15 15 14 14 14 14 13 13 12 12 12 12 11 11 10 10 9 9 10 9 9 9 9 8 8 8 8 8 7 7 8 8 8 8 8 7 7 7 6 6 5 5 5
2 5 3 7 7 8 9 10 10 10 8 10 10 10 11 12 13 13 13 14 15 15 15 15 14 14 13 12 13 13 14 14 13 13 12 11 10 10 10 9 9 9 8 8 8 8 9 9 7 7 7 8 8 8 7 6 6 6 6 6 6 5 5
3 4 3 4 5 8 9 9 8 7 8 12 9 10 12 11 11 12 13 12 14 14 14 14 14 13 13 12 12 14 14 14 13 13 12 13 12 12 10 10 9 9 8 9 8 8 8 8 8 8 7 8 7 6 7 7 7 7 7 7 7 7 6
5 4 4 4 4 4 5 5 5 8 8 8 10 11 12 11 11 12 13 13 12 13 14 15 14 13 12 12 12 14 13 13 13 13 14 14 12 12 12 11 10 10 9 9 8 8 8 8 8 7 8 8 7 7 7 7 8 8 7 7 7 7 7
5 4 3 2 2 3 4 3 3 4 8 9 10 10 11 11 11 11 12 12 12 14 15 14 13 13 13 13 14 14 14 13 13 15 14 14 12 13 12 11 11 10 10 9 8 8 8 7 8 8 8 8 8 8 8 8 8 8 8 8 8 8 7
5 5 5 5 3 3 2 2 3 4 7 8 7 8 9 10 11 11 11 12 12 13 14 12 11 12 13 14 14 14 14 14 14 14 15 14 13 14 13 12 11 10 11 10 9 9 8 8 8 8 9 9 10 9 9 9 9 9 8 8 8 8 8
4 4 4 5 4 3 3 1 1 2 5 7 8 8 8 8 10 11 11 12 12 11 12 13 12 12 12 13 13 13 15 14 14 14 15 15 14 14 13 13 12 11 10 11 10 10 9 9 9 9 9 9 9 9 9 9 9 8 8 9 8 8 8
4 3 4 5 4 4 3 2 3 4 4 4 6 8 8 8 9 10 10 11 12 11 11 10 12 13 12 12 12 12 13 14 14 13 14 14 13 12 12 13 13 12 11 11 11 11 10 10 10 9 9 10 10 10 9 9 9 8 8 9 8 8 7
2 3 4 3 4 5 4 4 3 3 4 5 5 6 8 8 8 9 10 10 10 10 10 10 12 12 13 13 12 12 13 13 13 13 12 11 11 12 12 12 12 12 12 11 12 12 12 11 10 10 10 9 9 9 9 9 8 8 8 8 8 8 8
3 4 4 4 4 4 4 4 4 4 4 4 5 6 7 8 9 9 9 9 10 10 12 12 12 12 12 12 13 13 12 12 12 12 12 11 10 11 12 12 11 11 11 11 11 10 11 11 11 10 10 9 9 9 8 8 8 8 8 8 8 7 8
3 3 4 4 4 4 3 4 4 4 5 5 5 6 6 7 9 10 10 11 11 11 12 11 12 13 13 12 12 13 12 11 11 11 12 12 12 12 12 12 12 12 12 11 11 10 10 10 10 10 10 9 9 9 8 8 7 7 6 3 5 7 7
2 3 3 3 3 4 5 4 4 4 4 4 4 6 6 6 7 8 11 12 12 12 11 11 11 12 13 13 12 12 12 11 10 10 11 11 11 12 12 12 12 11 11 11 11 11 10 9 10 10 10 10 9 9 9 8 7 9 11 8 6 7 7
2 2 3 3 3 3 4 4 5 5 5 5 6 5 6 6 7 8 9 11 13 12 11 12 13 13 13 13 12 12 12 12 12 11 11 11 11 11 11 11 11 11 11 11 11 10 10 10 10 10 10 8 9 9 8 8 6 13 11 10 10 8 7
2 2 2 3 3 3 3 4 5 5 6 6 6 6 7 7 7 9 9 9 11 11 12 12 12 13 14 13 13 13 12 12 12 13 12 12 11 10 9 10 10 11 10 11 10 10 10 10 10 10 10 9 9 9 9 9 12 12 12 11 9 8 7
3 2 3 4 4 4 3 4 5 5 6 7 7 7 7 8 8 9 9 9 10 11 12 13 13 13 13 13 14 13 13 13 13 13 12 12 11 10 10 10 11 11 10 9 9 9 9 11 11 10 9 9 9 8 8 10 10 12 12 10 10 9 8
3 3 4 4 4 4 5 5 6 7 7 7 7 7 7 7 8 9 9 10 11 11 13 13 13 15 14 14 13 13 13 13 13 12 11 11 10 10 10 10 10 10 10 10 10 10 10 10 10 9 9 10 9 10 9 8 12 12 11 10 10 9 8
3 3 4 4 5 5 6 6 7 7 7 7 8 6 6 8 8 9 10 10 12 11 12 13 14 15 14 13 14 15 13 13 13 12 10 10 10 10 10 10 11 11 10 9 9 9 9 9 9 10 10 10 10 10 11 5 12 11 10 10 9 10 7
3 4 4 4 5 6 6 6 7 6 7 8 8 7 6 7 9 9 9 10 11 12 12 13 14 15 14 12 11 12 12 13 13 11 11 10 10 10 10 10 9 10 9 9 9 10 10 10 10 9 10 10 9 9 9 6 6 9 9 9 10 9 7
3 4 4 5 5 5 5 5 6 6 6 6 6 6 6 7 8 8 8 9 9 11 12 11 13 13 13 11 11 14 10 11 11 10 10 9 10 10 9 8 8 8 8 9 9 10 10 9 8 8 8 9 9 9 8 7 7 8 8 8 11 9 7
4 5 5 5 5 6 6 6 6 6 5 4 5 6 7 7 8 7 7 8 9 9 10 11 11 11 9 10 14 13 12 12 10 9 9 9 9 9 9 9 8 7 7 7 7 7 7 8 7 7 7 7 7 7 7 3 6 5 6 7 9 8 6
4 4 4 5 5 7 6 5 5 5 2 4 5 7 6 4 4 5 5 6 5 6 8 9 9 8 9 9 6 7 7 7 7 8 8 9 8 8 8 7 7 7 6 6 6 7 7 7 6 6 7 6 6 5 5 5 5 5 4 3 3 6 5
3 4 4 5 7 8 7 5 4 3 3 4 5 5 5 3 3 4 5 4 3 1 3 3 3 3 2 5 4 5 7 6 7 8 8 7 7 7 7 6 7 6 6 6 5 5 4 6 6 6 5 5 6 6 4 1 5 5 4 2 2 3 5
4 4 3 5 5 6 6 5 4 3 5 6 6 5 4 4 4 6 5 4 3 3 2 2 4 4 3 3 5 6 2 5 6 7 7 8 7 7 7 7 6 6 6 6 6 6 7 8 6 7 8 6 5 4 5 2 1 5 4 4 5 4 1
4 6 6 6 5 6 7 5 4 6 7 7 6 4 4 6 8 8 7 6 4 2 3 3 3 2 4 5 4 1 2 3 4 4 5 5 7 7 7 6 6 7 7 7 7 9 9 9 9 8 6 6 5 4 4 5 4 4 4 3 3 5 6
4 6 6 5 6 7 6 6 5 5 7 6 5 4 4 5 8 8 8 8 5 3 4 4 3 2 5 5 5 5 5 4 4 5 4 2 3 5 6 6 6 5 5 6 7 8 7 7 7 7 7 7 6 5 4 5 6 6 5 3 2 3 5
5 6 6 6 6 6 5 5 5 5 6 6 7 7 7 7 8 10 10 7 7 7 8 8 6 6 6 5 5 4 5 6 6 5 3 2 3 3 3 5 6 6 6 7 7 6 8 6 6 7 7 7 6 6 5 5 5 5 5 6 3 4 6
4 5 5 6 7 7 5 4 5 6 7 8 8 7 7 7 8 9 8 7 6 7 7 8 8 8 7 7 6 6 5 8 8 7 6 5 3 2 1 3 4 5 5 5 6 6 5 6 6 5 5 6 6 6 4 4 2 3 3 4 4 3 3
4 6 7 6 6 6 6 5 5 6 6 8 7 6 6 7 7 8 8 8 7 7 7 8 8 8 7 8 8 7 7 8 6 7 8 7 7 7 7 6 3 4 4 4 3 3 5 5 5 5 5 4 3 4 4 4 3 2 3 3 3 4 5
4 6 7 8 7 6 7 6 6 6 6 6 7 7 6 6 8 8 8 7 7 6 7 9 9 8 8 8 8 8 8 9 12 10 8 8 8 7 7 7 6 6 6 4 3 6 6 6 6 5 5 5 5 5 5 5 5 4 3 3 3 4 4
4 5 6 6 6 8 8 7 6 6 7 7 6 6 7 7 7 8 7 7 6 6 8 9 10 9 9 8 8 8 8 8 8 8 7 8 10 9 7 6 6 6 7 8 6 3 3 6 6 5 5 6 6 6 5 5 5 2 1 1 2 3 4
4 6 6 7 7 9 8 7 6 6 7 7 7 7 7 8 8 8 7 6 6 7 8 8 9 9 8 8 8 8 8 8 9 9 8 8 7 9 12 17 15 11 7 6 10 13 14 10 6 4 5 5 7 6 2 5 5 3 3 5 8 11 10
3 5 7 8 8 8 9 7 6 8 8 8 7 7 7 7 7 7 7 7 5 6 7 7 8 8 7 7 7 7 7 7 7 7 8 8 8 9 10 9 10 14 13 11 11 13 16 16 16 16 14 7 7 7 12 10 8 5 5 7 10 10 8
5 7 8 9 7 8 8 8 8 8 8 7 7 8 8 8 8 7 6 6 5 5 7 7 7 8 7 7 6 6 6 7 7 8 8 8 8 9 9 9 9 9 13 15 16 17 17 15 15 14 13 12 7 6 5 6 6 6 7 9 10 8 8
Wind_Direction
226 215 195 209 210 214 212 200 190 188 187 186 188 187 183 180 177 175 175 175 177 175 177 177 182 181 184 187 189 188 193 193 192 189 194 197 195 192 194 194 191 200 196 195 195 202 193 208 209 205 198 198 209 199 210 208 214 211 194 198 216 237 231
300 253 235 234 238 226 220 206 197 199 191 190 190 189 188 180 177 180 179 178 181 180 181 181 182 185 186 188 187 188 192 195 196 193 195 192 197 200 196 194 195 186 209 207 192 197 193 193 201 203 209 201 208 208 201 203 209 216 207 184 214 202 213
251 277 282 256 237 247 226 218 222 203 199 196 192 190 190 184 180 182 179 181 183 184 185 185 186 188 188 188 190 188 191 194 192 195 199 192 193 198 198 199 199 193 200 201 205 195 197 200 194 203 209 212 207 191 207 202 200 209 207 207 215 209 204
222 232 228 239 261 240 239 237 246 227 205 204 195 193 191 187 185 181 184 184 183 184 188 189 189 191 190 190 193 191 193 196 200 198 202 200 194 201 194 199 205 208 195 202 197 209 202 195 191 197 204 208 213 206 198 207 205 199 208 210 226 214 218
221 223 234 249 258 252 260 231 223 232 229 204 200 196 194 188 187 185 188 189 188 186 187 190 190 191 192 192 195 195 197 196 199 205 203 206 205 201 201 204 197 208 205 199 201 196 211 199 200 192 193 207 207 201 207 200 215 210 212 213 225 219 221
205 212 199 218 244 264 255 249 236 230 225 232 201 196 197 190 193 193 192 190 193 189 189 192 192 188 194 194 197 196 196 199 201 204 208 207 207 207 205 207 206 205 200 204 200 196 195 209 214 197 197 197 210 206 202 201 207 209 200 212 221 226 228
277 274 224 187 222 236 234 245 248 235 243 235 212 196 200 194 197 200 196 193 195 191 191 193 195 190 194 195 198 197 196 196 198 203 205 209 206 214 209 208 212 207 211 195 209 198 198 208 211 212 208 216 204 208 202 207 216 210 208 208 210 224 237
349 288 274 280 251 233 233 229 236 243 215 231 219 204 200 201 197 201 201 200 198 193 194 194 194 194 191 198 197 201 198 200 197 201 204 208 207 211 212 212 207 212 209 205 200 206 207 208 207 206 208 214 212 214 211 200 211 229 214 211 210 222 217
18 349 316 298 285 277 260 227 215 250 240 243 225 206 201 202 202 200 201 203 201 197 197 196 195 192 190 195 199 202 203 203 200 201 205 208 210 209 211 207 211 206 210 214 204 199 213 204 210 207 207 216 210 206 219 213 216 218 226 219 214 221 236
24 358 25 291 265 263 271 262 202 246 274 227 221 212 203 202 205 203 203 201 200 200 200 203 195 193 188 192 198 200 203 204 207 203 204 207 210 209 211 211 205 203 210 213 216 202 202 215 208 202 203 211 210 210 218 215 219 222 216 217 221 223 225
25 16 13 354 329 313 279 291 211 230 256 259 232 217 209 207 206 206 203 200 201 201 199 206 199 197 191 193 198 197 202 205 207 206 205 208 209 209 207 209 207 199 206 210 212 210 197 203 213 211 205 213 212 212 214 218 220 222 228 224 219 220 226
24 16 7 356 348 331 321 284 281 243 254 269 245 230 226 219 212 211 206 202 199 202 203 198 200 199 195 200 200 199 201 205 207 208 207 209 211 211 209 208 208 203 197 206 210 210 205 202 208 212 213 218 222 219 215 218 223 222 228 230 227 224 226
17 23 21 358 1 359 336 288 252 238 254 283 285 253 236 230 223 224 216 211 204 197 198 205 200 189 194 202 207 199 204 203 206 209 210 208 213 214 212 211 209 208 203 202 207 209 211 207 208 213 215 217 223 225 218 218 223 222 221 230 234 234 231
39 29 23 18 359 350 340 330 324 295 262 253 260 270 268 251 240 231 226 219 212 205 195 200 206 199 190 191 203 202 202 205 204 210 211 211 211 219 218 216 215 210 210 206 206 211 210 212 210 208 216 218 221 224 222 215 220 217 220 222 228 228 226
15 4 15 26 14 348 333 327 321 302 294 279 258 248 242 254 253 239 230 224 218 211 209 203 201 204 203 195 193 198 202 202 201 204 206 208 212 215 221 223 222 218 216 213 214 212 215 214 214 216 216 216 222 223 223 218 213 217 210 216 223 237 237
20 27 15 19 17 8 360 347 323 313 301 287 273 262 249 231 240 245 243 234 225 222 215 209 207 205 205 208 200 191 195 202 204 200 201 198 203 206 211 217 218 218 218 219 218 221 220 220 221 220 218 218 216 221 224 225 224 208 202 237 233 220 234
2 16 23 21 26 16 15 356 333 316 306 295 282 274 268 262 248 241 237 237 235 229 220 211 213 216 210 208 210 202 191 193 200 201 202 200 201 203 207 213 216 216 218 217 218 219 217 224 225 225 223 221 219 224 227 227 230 151 154 175 236 258 247
339 340 344 356 5 5 349 346 350 340 331 316 306 289 269 265 258 242 240 238 232 229 223 218 217 218 217 213 208 208 199 193 191 196 197 200 203 206 210 214 216 219 215 217 216 213 215 211 217 222 225 227 229 228 232 237 135 141 159 184 200 222 252
298 312 309 325 342 345 340 327 324 316 311 312 304 296 289 274 259 248 240 237 236 229 224 217 220 223 221 215 210 205 202 198 193 193 196 199 202 203 205 212 216 217 219 221 221 218 217 219 215 219 223 226 229 235 230 235 144 159 168 189 194 202 236
266 257 281 284 296 298 307 304 302 303 301 298 291 292 291 276 268 259 245 240 241 234 227 220 214 220 226 218 209 206 203 203 199 194 195 195 198 198 203 207 210 213 212 215 216 220 217 218 216 217 220 223 229 227 231 240 161 170 176 181 187 188 208
277 298 302 308 310 313 304 301 295 294 292 290 299 299 288 280 264 254 244 232 230 229 228 222 217 214 214 215 211 203 202 204 203 201 197 198 198 197 200 202 209 213 210 206 208 209 213 215 219 217 215 214 216 222 221 223 143 158 163 175 185 187 206
323 318 316 320 314 305 304 298 298 296 297 301 296 295 292 285 277 267 255 240 229 227 225 223 219 215 214 209 208 209 205 198 200 200 199 198 199 202 203 203 206 209 212 216 213 210 209 212 217 215 212 213 213 219 225 161 148 145 158 159 182 177 212
314 315 300 285 294 301 300 300 299 309 307 304 303 299 303 297 286 273 261 249 236 228 227 225 220 216 212 200 203 213 197 201 202 200 197 197 198 203 205 206 207 208 206 212 217 217 212 212 210 210 215 214 216 221 225 192 144 139 152 165 173 187 218
297 284 300 314 310 301 309 312 310 311 314 310 309 319 309 295 282 275 258 243 236 229 227 228 228 222 218 203 204 205 193 206 202 195 196 194 198 202 206 209 210 208 204 211 213 220 222 220 220 215 216 218 216 227 224 219 134 151 159 172 183 210 223
305 322 323 321 320 318 315 335 334 320 313 330 333 330 312 303 296 282 262 244 234 229 230 229 230 229 230 214 207 207 195 191 187 190 194 200 201 203 208 210 210 205 199 204 216 222 220 217 216 210 209 213 217 218 238 193 117 140 163 189 200 219 232
317 319 331 335 339 347 334 327 319 313 358 349 344 323 320 314 303 297 263 241 243 250 244 237 236 225 223 227 215 182 175 172 176 185 198 204 202 203 207 206 207 203 194 195 214 215 211 210 209 206 207 202 203 190 210 207 127 95 30 335 284 267 283
312 316 331 338 358 344 335 338 340 316 353 12 341 344 339 328 354 17 42 44 6 6 348 346 22 61 348 316 288 178 164 172 179 188 197 202 202 202 204 206 211 201 190 195 208 212 200 191 206 201 190 177 184 185 152 32 155 119 132 103 17 360 299
315 320 332 350 351 347 343 345 358 6 23 15 349 342 15 37 55 68 68 82 73 60 35 39 29 67 105 99 0 21 52 183 183 192 196 198 203 204 208 208 209 206 197 195 195 193 191 176 149 158 174 171 178 180 162 85 108 127 116 134 121 124 322
322 319 346 350 350 12 350 8 33 41 31 14 356 6 42 66 69 69 67 73 78 84 71 60 60 126 124 119 137 194 9 38 318 229 190 191 198 199 201 198 204 209 202 198 199 198 194 180 187 184 166 157 155 152 161 141 110 99 113 94 126 141 154
316 323 339 358 20 18 0 37 33 43 44 23 5 41 35 62 76 68 56 52 76 88 89 96 103 120 109 97 105 127 102 88 64 36 20 5 213 201 206 197 189 193 199 202 192 193 177 178 190 189 177 167 158 158 154 129 110 87 89 107 134 161 172
339 348 1 6 20 25 28 55 52 57 62 40 25 19 29 43 63 67 64 56 61 75 83 77 73 66 58 61 65 60 75 86 75 81 88 53 350 306 250 213 178 181 185 187 194 191 189 183 185 187 180 167 161 157 140 130 119 107 104 101 107 133 158
2 10 12 11 27 34 38 55 59 59 69 55 41 42 41 48 53 56 49 47 59 74 83 87 83 78 79 73 69 69 65 76 75 69 54 54 42 6 301 232 194 172 171 174 190 204 188 157 163 165 144 145 147 134 122 104 90 96 87 95 94 80 93
27 25 30 32 29 35 37 41 60 61 63 68 60 47 45 47 52 59 60 59 61 71 83 86 87 85 79 79 79 74 71 71 71 58 42 33 38 37 26 18 39 102 116 142 160 139 120 119 120 109 91 75 68 88 106 128 113 94 80 61 71 74 95
50 41 34 37 28 30 44 52 61 66 61 53 51 60 58 55 59 60 62 65 69 79 87 87 85 84 80 75 71 70 69 74 76 70 60 47 41 32 24 36 44 47 46 52 94 134 133 137 124 121 134 141 142 141 132 116 92 62 54 38 49 71 74
66 56 40 45 44 42 44 35 56 62 67 65 63 63 65 68 68 68 68 70 75 81 85 85 85 84 84 82 81 81 84 85 84 79 74 71 65 59 43 9 18 56 63 38 11 17 121 140 116 132 149 156 153 148 132 120 120 111 291 50 14 29 107
71 69 69 53 51 51 52 48 45 56 61 62 61 66 67 68 66 74 79 82 90 99 98 95 89 83 73 72 75 81 85 82 83 84 87 87 87 80 66 52 46 30 57 53 31 46 43 53 90 105 144 105 47 17 100 125 112 112 77 66 69 61 55
76 70 65 60 58 60 58 53 60 62 60 58 62 71 72 70 68 72 78 86 94 102 100 98 97 93 86 78 74 78 83 86 89 93 101 107 109 98 97 90 59 49 51 67 63 57 56 55 52 44 34 69 110 67 61 89 101 103 100 89 77 71 68
98 95 90 82 78 77 72 66 57 60 63 66 71 78 77 73 67 66 76 85 88 92 95 97 98 97 93 94 96 93 91 91 91 97 100 102 105 109 109 101 93 66 38 46 61 60 60 59 55 53 57 44 58 117 115 95 91 92 83 79 77 77 74